EW1710 Weather Reports


Display with metric or nautical units.
time (UTC)temp
F
wind
direction
speed
MPH
gust
MPH
rain 1hr
in
rain 24hr
in
rain mn
in
humidity
%
barometer
mb
20260509194428 71 253 4.0 5.0 0.00 0.21 0.21 51 1006.9
20260509193926 71 321 6.0 7.0 0.00 0.21 0.21 48 1006.4
20260509193425 70 280 4.0 5.0 0.00 0.21 0.21 50 1006.6
20260509192922 70 189 5.0 7.0 0.00 0.21 0.21 49 1006.8
20260509192418 70 251 3.0 5.0 0.00 0.21 0.21 51 1007.3
20260509191913 71 179 6.0 8.0 0.00 0.21 0.21 52 1007.3
20260509191409 70 236 4.0 6.0 0.00 0.21 0.21 50 1007.1
20260509190905 69 162 3.0 3.0 0.00 0.21 0.21 54 1007.4
20260509190403 69 220 7.0 9.0 0.00 0.21 0.21 52 1007.4
20260509185900 69 162 4.0 5.0 0.00 0.21 0.21 53 1007.5
20260509185356 70 194 5.0 7.0 0.00 0.21 0.21 52 1007.4
20260509184853 68 221 4.0 6.0 0.00 0.21 0.21 52 1007.6
20260509184350 68 305 3.0 2.0 0.00 0.21 0.21 54 1007.7
20260509183847 68 182 6.0 8.0 0.00 0.21 0.21 54 1007.8
20260509183342 68 118 1.0 1.0 0.00 0.21 0.21 55 1007.4
20260509182838 68 2 2.0 2.0 0.00 0.21 0.21 57 1007.7
20260509182336 68 276 7.0 11.0 0.00 0.21 0.21 53 1007.7
20260509181833 68 176 5.0 7.0 0.00 0.21 0.21 53 1007.7
20260509181330 68 169 6.0 8.0 0.00 0.21 0.21 54 1007.5
20260509180827 69 327 3.0 3.0 0.00 0.21 0.21 54 1007.5
20260509180323 69 84 2.0 2.0 0.00 0.21 0.21 53 1007.4
20260509175820 69 210 1.0 2.0 0.00 0.21 0.21 54 1007.7
20260509175316 68 341 5.0 6.0 0.00 0.21 0.21 54 1007.3
20260509174812 67 148 1.0 2.0 0.00 0.21 0.21 55 1007.4
20260509174308 67 177 1.0 1.0 0.00 0.21 0.21 58 1007.9
20260509173804 68 190 4.0 6.0 0.00 0.21 0.21 54 1007.8
20260509173300 68 275 4.0 5.0 0.00 0.21 0.21 55 1007.9
20260509172756 68 151 5.0 6.0 0.00 0.21 0.21 55 1007.7
20260509172253 67 184 4.0 7.0 0.00 0.21 0.21 56 1007.7
20260509171748 66 231 6.0 8.0 0.00 0.21 0.21 56 1007.9
20260509171245 66 355 3.0 3.0 0.00 0.21 0.21 57 1007.7
20260509170741 66 215 2.0 2.0 0.00 0.21 0.21 56 1007.9
20260509170237 66 176 2.0 2.0 0.00 0.21 0.21 57 1007.9
20260509165736 66 149 5.0 9.0 0.00 0.21 0.21 60 1007.5
20260509165232 65 197 1.0 1.0 0.00 0.21 0.21 64 1007.6
20260509164728 65 258 2.0 3.0 0.00 0.21 0.21 61 1007.7
20260509164224 65 242 3.0 3.0 0.00 0.21 0.21 62 1007.9
20260509163721 66 282 3.0 5.0 0.00 0.21 0.21 58 1007.8
20260509163217 65 263 4.0 5.0 0.00 0.21 0.21 67 1008.0
20260509162715 65 323 4.0 5.0 0.00 0.21 0.21 61 1008.1
20260509162210 64 289 1.0 1.0 0.00 0.21 0.21 59 1008.2
20260509161706 65 334 4.0 6.0 0.00 0.21 0.21 60 1008.3
20260509161203 66 309 4.0 7.0 0.00 0.21 0.21 60 1008.4
20260509160658 65 238 1.0 1.0 0.00 0.21 0.21 64 1008.3
20260509160154 63 345 2.0 2.0 0.00 0.21 0.21 65 1008.3
20260509155650 61 285 3.0 3.0 0.00 0.21 0.21 70 1008.5
20260509155146 62 234 6.0 10.0 0.00 0.21 0.21 69 1008.4
20260509154642 63 342 3.0 5.0 0.00 0.21 0.21 68 1008.4
20260509154139 64 314 3.0 5.0 0.00 0.21 0.21 69 1008.3
20260509153636 64 211 3.0 5.0 0.00 0.21 0.21 65 1008.3
20260509153133 64 141 1.0 1.0 0.00 0.21 0.21 68 1008.2
20260509152628 64 49 1.0 1.0 0.00 0.21 0.21 70 1008.3
20260509152126 63 224 2.0 3.0 0.00 0.21 0.21 71 1008.3
20260509151622 62 252 4.0 5.0 0.00 0.21 0.21 71 1008.2
20260509151120 61 332 4.0 5.0 0.00 0.21 0.21 76 1008.3
20260509150618 59 267 2.0 2.0 0.00 0.21 0.21 77 1008.3
20260509150116 60 10 1.0 1.0 0.00 0.21 0.21 77 1008.5
20260509145611 60 92 2.0 2.0 0.00 0.21 0.21 78 1008.3
20260509145107 60 290 5.0 6.0 0.00 0.21 0.21 77 1008.4
20260509144604 59 271 4.0 5.0 0.00 0.21 0.21 80 1008.3
20260509144101 60 334 2.0 5.0 0.00 0.21 0.21 80 1008.2
20260509143558 59 71 0.0 1.0 0.00 0.21 0.21 82 1008.1
20260509143056 59 138 2.0 3.0 0.00 0.21 0.21 83 1008.2
20260509142550 59 186 1.0 1.0 0.00 0.21 0.21 82 1008.1
20260509142047 59 157 0.0 1.0 0.00 0.21 0.21 84 1008.5
20260509141543 58 230 1.0 2.0 0.00 0.21 0.21 84 1008.3
20260509141040 57 276 3.0 3.0 0.00 0.21 0.21 85 1008.4
20260509140537 57 145 0.0 1.0 0.00 0.21 0.21 87 1008.6
20260509140035 57 197 1.0 1.0 0.00 0.21 0.21 87 1008.5
20260509135532 57 190 1.0 2.0 0.00 0.21 0.21 88 1008.6
20260509135030 57 274 2.0 2.0 0.00 0.21 0.21 87 1008.6
20260509134526 57 356 0.0 0.0 0.00 0.21 0.21 87 1008.4
20260509134024 57 275 0.0 0.0 0.00 0.21 0.21 86 1008.6
20260509133520 57 258 1.0 2.0 0.00 0.21 0.21 86 1008.3
20260509133018 57 263 3.0 6.0 0.00 0.21 0.21 86 1008.5
20260509132516 57 235 2.0 2.0 0.00 0.21 0.21 86 1008.7
20260509132014 57 161 0.0 0.0 0.00 0.21 0.21 88 1008.5
20260509131510 56 8 1.0 1.0 0.00 0.21 0.21 89 1008.4
20260509131007 56 192 1.0 1.0 0.00 0.21 0.21 90 1008.3
20260509130502 55 159 1.0 1.0 0.00 0.21 0.21 92 1008.3
20260509130000 55 186 0.0 0.0 0.00 0.21 0.21 91 1008.3
20260509125456 55 213 1.0 1.0 0.00 0.21 0.21 91 1008.5
20260509124952 55 113 0.0 1.0 0.00 0.21 0.21 91 1008.6
20260509124449 55 152 0.0 0.0 0.00 0.21 0.21 91 1008.4
20260509123946 55 184 1.0 2.0 0.00 0.21 0.21 92 1008.4
20260509123444 55 99 0.0 0.0 0.00 0.21 0.21 92 1008.7
20260509122939 55 344 1.0 1.0 0.00 0.21 0.21 93 1008.8
20260509122437 54 262 2.0 2.0 0.00 0.21 0.21 93 1008.7
20260509121933 54 153 3.0 3.0 0.00 0.21 0.21 93 1008.6
20260509121430 54 172 1.0 1.0 0.00 0.21 0.21 94 1008.7
20260509120928 54 147 0.0 0.0 0.00 0.21 0.21 94 1009.0
20260509120426 54 329 0.0 0.0 0.00 0.21 0.21 94 1008.9
20260509115924 53 112 0.0 0.0 0.00 0.21 0.21 95 1008.7
20260509115421 53 79 1.0 1.0 0.00 0.21 0.21 95 1008.8
20260509114918 53 163 3.0 5.0 0.00 0.21 0.21 95 1008.8
20260509114417 53 152 0.0 0.0 0.00 0.21 0.21 95 1008.8
20260509113916 53 167 1.0 1.0 0.00 0.21 0.21 95 1008.8
20260509113413 53 188 0.0 0.0 0.00 0.21 0.21 95 1008.9
20260509112910 53 179 1.0 1.0 0.00 0.21 0.21 95 1008.8
20260509112407 53 110 0.0 0.0 0.00 0.21 0.21 95 1008.6
20260509111904 53 159 0.0 1.0 0.00 0.21 0.21 96 1008.8
20260509111400 53 146 0.0 0.0 0.00 0.21 0.21 96 1008.7
20260509110858 53 149 0.0 1.0 0.00 0.21 0.21 96 1008.6
20260509110354 52 191 1.0 1.0 0.00 0.21 0.21 96 1008.6
20260509105853 52 219 0.0 0.0 0.00 0.21 0.21 96 1008.8
20260509105350 52 167 0.0 0.0 0.00 0.21 0.21 96 1008.4
20260509104847 52 162 0.0 0.0 0.00 0.21 0.21 96 1008.2
20260509104343 52 170 2.0 2.0 0.00 0.21 0.21 96 1008.5
20260509103841 52 159 0.0 1.0 0.00 0.21 0.21 96 1008.4
20260509103338 52 140 1.0 1.0 0.00 0.21 0.21 96 1008.2
20260509102837 52 172 0.0 0.0 0.00 0.21 0.21 96 1008.2
20260509102334 52 119 0.0 0.0 0.00 0.21 0.21 96 1008.3
20260509101830 52 158 0.0 0.0 0.00 0.21 0.21 96 1008.6
20260509101326 52 178 0.0 0.0 0.00 0.21 0.21 96 1008.4
20260509100824 52 171 0.0 0.0 0.00 0.21 0.21 96 1008.3
20260509100321 52 139 0.0 0.0 0.00 0.21 0.21 96 1008.3
20260509095817 52 152 0.0 1.0 0.00 0.21 0.21 96 1008.6
20260509095315 52 147 0.0 0.0 0.00 0.21 0.21 96 1008.4
20260509094812 52 161 0.0 0.0 0.00 0.21 0.21 96 1008.5
20260509094309 52 165 0.0 0.0 0.00 0.21 0.21 95 1008.7
20260509093806 52 174 1.0 1.0 0.00 0.21 0.21 96 1008.6
20260509093303 52 159 0.0 0.0 0.00 0.21 0.21 95 1008.8
20260509092802 52 160 1.0 1.0 0.00 0.21 0.21 95 1008.8
20260509092259 52 173 1.0 1.0 0.00 0.21 0.21 96 1008.5
20260509091757 52 148 1.0 1.0 0.00 0.21 0.21 95 1008.6
20260509091253 52 163 1.0 1.0 0.00 0.21 0.21 96 1008.8
20260509090751 52 189 2.0 2.0 0.00 0.21 0.21 96 1008.9
20260509090248 52 143 0.0 0.0 0.00 0.21 0.21 96 1008.8
20260509085746 52 164 1.0 2.0 0.00 0.21 0.21 95 1008.9
20260509085243 52 178 0.0 0.0 0.00 0.21 0.21 95 1009.0
20260509084739 52 153 0.0 0.0 0.00 0.21 0.21 95 1008.9
20260509084236 52 167 0.0 0.0 0.00 0.21 0.21 95 1009.2
20260509083734 52 162 1.0 1.0 0.00 0.21 0.21 95 1009.0
20260509083230 52 207 0.0 0.0 0.00 0.21 0.21 95 1009.1
20260509082727 52 166 1.0 1.0 0.00 0.21 0.21 95 1009.1
20260509082224 52 185 1.0 2.0 0.00 0.21 0.21 95 1009.2
20260509081720 52 138 0.0 1.0 0.00 0.21 0.21 95 1009.1
20260509081218 52 210 3.0 3.0 0.00 0.21 0.21 95 1009.1
20260509080716 52 220 1.0 1.0 0.00 0.21 0.21 95 1009.0
20260509080213 52 182 1.0 1.0 0.00 0.21 0.21 95 1009.1
20260509075712 52 145 1.0 1.0 0.00 0.21 0.21 95 1009.2
20260509075209 52 170 0.0 0.0 0.00 0.21 0.21 95 1009.3
20260509074706 52 138 0.0 0.0 0.00 0.21 0.21 95 1009.1
20260509074203 52 163 0.0 1.0 0.00 0.21 0.21 95 1009.4
20260509073659 52 174 0.0 0.0 0.00 0.21 0.21 95 1009.5
20260509073155 52 84 0.0 0.0 0.00 0.21 0.21 95 1009.0
20260509072652 52 138 0.0 0.0 0.00 0.21 0.21 95 1009.3
20260509072149 52 172 1.0 1.0 0.00 0.21 0.21 95 1009.1
20260509071646 52 162 1.0 1.0 0.00 0.21 0.21 95 1009.1
20260509071143 52 282 0.0 0.0 0.00 0.21 0.21 95 1009.2
20260509070640 52 175 1.0 1.0 0.00 0.21 0.21 95 1009.5
20260509070136 52 222 1.0 2.0 0.05 0.21 0.21 95 1009.3
20260509065632 52 168 1.0 1.0 0.05 0.21 0.21 95 1009.3
20260509065128 52 184 0.0 0.0 0.00 0.20 0.20 95 1009.3
20260509064626 52 212 2.0 2.0 0.00 0.20 0.20 95 1009.4
20260509064124 52 154 0.0 0.0 0.00 0.20 0.20 95 1009.4
20260509063620 52 137 0.0 0.0 0.07 0.20 0.20 95 1009.4
20260509063117 52 165 1.0 1.0 0.07 0.20 0.20 95 1009.4
20260509062614 52 154 0.0 0.0 0.00 0.19 0.19 95 1009.7
20260509062111 52 154 1.0 1.0 0.00 0.19 0.19 95 1009.5
20260509061608 52 232 1.0 1.0 0.00 0.19 0.19 95 1009.9
20260509061105 51 159 2.0 2.0 0.00 0.19 0.19 95 1009.9
20260509060603 51 170 0.0 0.0 0.00 0.19 0.19 95 1010.0
20260509060058 51 170 1.0 2.0 0.05 0.19 0.19 95 1009.7
20260509055554 51 142 0.0 0.0 0.12 0.19 0.19 95 1010.2
20260509055050 51 85 1.0 1.0 0.12 0.18 0.18 95 1010.0
20260509054547 51 178 1.0 1.0 0.12 0.17 0.17 95 1010.2
20260509054045 51 182 1.0 1.0 0.26 0.16 0.16 95 1010.2
20260509053543 51 168 0.0 0.0 0.50 0.16 0.16 95 1010.3
20260509053040 51 157 0.0 0.0 0.24 0.12 0.12 95 1010.2
20260509052538 51 124 0.0 0.0 0.00 0.08 0.08 95 1010.3
20260509052035 51 187 1.0 1.0 0.05 0.08 0.08 95 1010.4
20260509051533 51 223 2.0 2.0 0.05 0.08 0.08 95 1010.3
20260509051030 51 178 2.0 2.0 0.00 0.07 0.07 95 1010.5
20260509050527 51 168 3.0 3.0 0.00 0.07 0.07 95 1010.2
20260509050023 51 208 0.0 0.0 0.07 0.07 0.07 95 1010.3
20260509045520 51 161 4.0 3.0 0.07 0.07 0.07 95 1010.4
20260509045017 51 172 1.0 1.0 0.12 0.07 0.07 95 1010.4
20260509044515 51 167 2.0 2.0 0.12 0.06 0.06 95 1010.6
20260509044013 51 137 0.0 0.0 0.07 0.05 0.05 95 1010.6
20260509043508 51 140 1.0 1.0 0.05 0.04 0.04 95 1010.3
20260509043004 51 141 0.0 0.0 0.05 0.04 0.04 95 1010.4
20260509042501 51 140 0.0 0.0 0.07 0.03 0.03 95 1010.5
20260509041956 51 140 0.0 0.0 0.19 0.03 0.03 95 1010.7
20260509041453 51 134 0.0 0.0 0.12 0.02 0.02 95 1010.7
20260509040951 51 111 1.0 1.0 0.00 0.00 0.00 94 1010.7
20260509040449 51 137 0.0 0.0 0.00 0.00 0.00 94 1011.1
20260509035946 51 145 2.0 2.0 0.00 0.38 0.38 94 1011.0
20260509035442 51 157 0.0 1.0 0.00 0.38 0.38 94 1011.0
20260509034939 51 121 0.0 0.0 0.00 0.38 0.38 94 1011.1
20260509034437 51 174 3.0 3.0 0.00 0.38 0.38 94 1011.1
20260509033934 51 165 3.0 3.0 0.07 0.38 0.38 94 1011.2
20260509033431 51 160 2.0 2.0 0.07 0.38 0.38 93 1011.3
20260509032927 51 115 2.0 3.0 0.00 0.37 0.37 93 1011.2
20260509032425 51 171 1.0 1.0 0.00 0.37 0.37 93 1011.1
20260509031923 51 185 1.0 1.0 0.00 0.37 0.37 93 1011.2
20260509031420 51 123 1.0 1.0 0.05 0.37 0.37 93 1011.4
20260509030917 51 117 1.0 1.0 0.05 0.37 0.37 93 1011.5
20260509030415 51 167 1.0 1.0 0.00 0.36 0.36 93 1011.5
20260509025912 51 173 0.0 0.0 0.07 0.36 0.36 93 1011.8
20260509025408 51 194 1.0 1.0 0.07 0.36 0.36 94 1011.5
20260509024903 51 149 2.0 2.0 0.00 0.35 0.35 94 1011.6
20260509024359 51 152 1.0 2.0 0.00 0.35 0.35 94 1011.8
20260509023856 51 162 0.0 0.0 0.00 0.35 0.35 94 1011.3
20260509023354 51 151 1.0 1.0 0.00 0.35 0.35 94 1011.5
20260509022850 51 161 0.0 0.0 0.00 0.35 0.35 94 1011.5
20260509022347 51 161 0.0 0.0 0.00 0.35 0.35 94 1011.7
20260509021844 51 160 1.0 1.0 0.00 0.35 0.35 94 1011.5
20260509021341 51 163 2.0 2.0 0.00 0.35 0.35 94 1011.7
20260509020839 51 170 0.0 0.0 0.00 0.35 0.35 94 1011.6
20260509020337 51 133 1.0 2.0 0.00 0.35 0.35 94 1011.6
20260509015834 51 145 2.0 2.0 0.00 0.35 0.35 94 1011.5
20260509015332 51 153 1.0 1.0 0.00 0.35 0.35 94 1011.6
20260509014829 51 158 1.0 1.0 0.00 0.35 0.35 94 1011.4
20260509014326 51 175 1.0 1.0 0.00 0.35 0.35 94 1011.4
20260509013822 51 165 1.0 1.0 0.00 0.35 0.35 94 1011.4
20260509013319 50 175 0.0 0.0 0.00 0.35 0.35 95 1011.5
20260509012815 50 153 1.0 1.0 0.00 0.35 0.35 95 1011.6
20260509012312 50 170 0.0 0.0 0.00 0.35 0.35 95 1011.5
20260509011809 50 119 0.0 0.0 0.05 0.35 0.35 95 1011.3
20260509011306 50 124 0.0 0.0 0.05 0.35 0.35 95 1011.7
20260509010804 50 120 1.0 1.0 0.00 0.34 0.34 94 1011.4
20260509010300 50 171 1.0 2.0 0.07 0.34 0.34 94 1011.5
20260509005758 50 165 0.0 0.0 0.07 0.34 0.34 94 1011.6
20260509005256 50 150 0.0 0.0 0.00 0.33 0.33 94 1011.3
20260509004755 50 170 2.0 2.0 0.05 0.33 0.33 94 1011.4
20260509004252 50 170 2.0 2.0 0.05 0.33 0.33 94 1011.4
20260509003751 50 159 1.0 1.0 0.07 0.32 0.32 94 1011.1
20260509003248 50 170 0.0 0.0 0.07 0.32 0.32 94 1011.2
20260509002745 50 157 0.0 0.0 0.07 0.32 0.32 94 1011.4
20260509002243 50 163 2.0 2.0 0.05 0.31 0.31 94 1011.3
20260509001740 50 169 2.0 2.0 0.05 0.31 0.31 94 1011.4
20260509001235 50 179 0.0 0.0 0.07 0.30 0.30 94 1011.5
20260509000734 50 199 3.0 2.0 0.07 0.30 0.30 94 1011.4
20260509000231 51 174 1.0 0.0 0.05 0.29 0.29 94 1011.5
20260508235728 51 176 0.0 1.0 0.05 0.29 0.29 94 1011.5
20260508235224 51 135 0.0 0.0 0.07 0.28 0.28 93 1011.4
20260508234721 51 143 0.0 0.0 0.07 0.28 0.28 93 1011.2
20260508234217 51 160 1.0 2.0 0.07 0.27 0.27 94 1011.3
20260508233712 51 193 1.0 0.0 0.12 0.27 0.27 94 1011.2
20260508233209 51 158 0.0 0.0 0.12 0.26 0.26 94 1011.2
20260508232706 51 174 1.0 1.0 0.12 0.25 0.25 93 1011.4
20260508232202 51 159 0.0 0.0 0.12 0.24 0.24 93 1011.6
20260508231701 51 149 0.0 0.0 0.12 0.23 0.23 93 1011.4
20260508231157 51 116 0.0 0.0 0.12 0.22 0.22 92 1011.4
20260508230654 51 120 0.0 0.0 0.07 0.21 0.21 92 1011.3
20260508230150 51 83 0.0 0.0 0.05 0.20 0.20 92 1010.9
20260508225648 51 102 1.0 0.0 0.05 0.20 0.20 92 1011.3
20260508225144 51 156 0.0 0.0 0.00 0.19 0.19 92 1011.4
20260508224642 51 182 0.0 0.0 0.00 0.19 0.19 92 1011.3
20260508224140 50 198 0.0 0.0 0.00 0.19 0.19 92 1011.3
20260508223637 50 153 1.0 1.0 0.12 0.19 0.19 92 1011.1
20260508223134 50 168 0.0 0.0 0.24 0.19 0.19 92 1011.4
20260508222631 50 246 0.0 0.0 0.31 0.17 0.17 91 1011.6
20260508222128 51 340 1.0 2.0 0.19 0.14 0.14 91 1011.5
20260508221625 51 331 0.0 0.0 0.12 0.12 0.12 91 1011.4
20260508221120 51 357 0.0 0.0 0.12 0.11 0.11 91 1011.3
20260508220617 51 359 1.0 1.0 0.19 0.10 0.10 90 1011.1
20260508220114 51 31 0.0 0.0 0.17 0.09 0.09 90 1011.3
20260508215611 51 86 0.0 0.0 0.12 0.08 0.08 89 1011.5
20260508215107 51 138 0.0 0.0 0.00 0.06 0.06 89 1010.9
20260508214605 51 79 0.0 0.0 0.00 0.06 0.06 89 1010.8
20260508214101 51 72 0.0 0.0 0.00 0.06 0.06 88 1010.8
20260508213558 51 100 0.0 0.0 0.00 0.06 0.06 89 1010.8
20260508213054 51 118 0.0 0.0 0.00 0.06 0.06 88 1011.3
20260508212551 51 166 0.0 0.0 0.00 0.06 0.06 88 1010.9
20260508212047 51 14 0.0 0.0 0.07 0.06 0.06 88 1011.2
20260508211543 52 132 1.0 1.0 0.07 0.06 0.06 89 1011.5
20260508211039 51 136 0.0 0.0 0.00 0.05 0.05 88 1011.5
20260508210536 51 196 1.0 1.0 0.05 0.05 0.05 87 1011.5
20260508210034 52 98 1.0 0.0 0.12 0.05 0.05 86 1011.6
20260508205531 52 266 2.0 2.0 0.07 0.04 0.04 84 1011.8
20260508205027 52 310 2.0 2.0 0.07 0.03 0.03 83 1011.7
20260508204524 52 208 1.0 2.0 0.07 0.03 0.03 82 1011.6
20260508204019 53 24 1.0 2.0 0.00 0.02 0.02 82 1011.6
20260508203515 53 223 0.0 1.0 0.00 0.02 0.02 82 1011.8
20260508203011 53 344 4.0 5.0 0.00 0.02 0.02 82 1012.0
20260508202508 53 297 1.0 2.0 0.00 0.02 0.02 81 1012.2
20260508202005 53 238 3.0 2.0 0.00 0.02 0.02 80 1012.5
20260508201503 54 175 1.0 1.0 0.00 0.02 0.02 80 1012.4
20260508200959 55 357 1.0 2.0 0.00 0.02 0.02 77 1012.2
20260508200456 55 8 1.0 1.0 0.00 0.02 0.02 74 1012.0
20260508195950 56 168 4.0 6.0 0.00 0.02 0.02 72 1012.3
20260508195448 57 172 2.0 2.0 0.00 0.02 0.02 70 1012.2
20260508194944 57 175 0.0 0.0 0.00 0.02 0.02 69 1012.5